Content
SEND FEEDBACK

Daily
Averages
Monthly
Summary
United States of America

CORNING, ARKANSAS


Home > North America > United States > Arkansas
Elevation: 293 feet     Latitude: 36 24N     Longitude: 090 35W

WEATHER
 
SELECT A DAY
Number of Records: 122,590;   Date Range: 6/12/09 - 8/29/14
 
SHARE

PRINT THIS DATA

[ ← Previous Day ]
WEATHER ALMANAC - JANUARY 31, 2013
[ Next Day → ]
[ °C ]   °F
Weather ElementAverageHighLow
Temperature34.3 °F48.2 °F (3:15 pm)24.8 °F (11:35 pm)
Dewpoint23.5 °F32 °F (12:55 pm)8.6 °F (11:15 pm)
Humidity65.3 %81 % (6:15 pm)46 % (3:35 pm)
Barometer30.14 in30.40 in (11:55 pm)30.02 in (12:55 am)
Wind Speed13.7 mph33.4 mph (7:15 pm)
Wind Gust36.8 mph (7:15 pm)
Weather ElementAverage
Visibility10 mi
Wind DirectionW (269.3 °)

Weather ElementTotal
Precipitation---
Heating Degree Days28.5 (Base 65)
Averaged from 69 records on January 31, 2013
WEATHER CONDITIONS BREAKOUT
WIND DIRECTION BREAKOUT
WEATHER BY HOUR - JANUARY 31, 2013
[ °C ]   °F
Local TimeTemperatureDewpointHumidityBarometerVisibilityWind DirectionWind SpeedGust SpeedPrecipitationEventsConditions
12:35 AM32.0 °F21.2 °F64 %30.03 in10.0 miWNW (290°)16.1 mph20.7 mphScattered Clouds
12:55 AM32.0 °F23.0 °F69 %30.02 in10.0 miWest (280°)9.2 mphPartly Cloudy
1:15 AM32.0 °F23.0 °F69 %30.02 in10.0 miWest (280°)8.1 mphClear
1:35 AM30.2 °F23.0 °F75 %30.02 in10.0 miWest (270°)6.9 mphPartly Cloudy
1:55 AM32.0 °F23.0 °F69 %30.03 in10.0 miWest (280°)11.5 mph16.1 mphPartly Cloudy
2:15 AM32.0 °F21.2 °F64 %30.03 in10.0 miWest (280°)10.4 mphClear
2:35 AM30.2 °F21.2 °F69 %30.03 in10.0 miWest (270°)10.4 mphClear
2:55 AM30.2 °F23.0 °F75 %30.03 in10.0 miWest (260°)8.1 mphClear
3:15 AM30.2 °F23.0 °F75 %30.04 in10.0 miWSW (250°)8.1 mphClear
3:35 AM30.2 °F23.0 °F75 %30.04 in10.0 miWest (260°)8.1 mphClear
3:55 AM30.2 °F23.0 °F75 %30.04 in10.0 miWest (260°)10.4 mphClear
4:15 AM30.2 °F21.2 °F69 %30.04 in10.0 miWest (270°)9.2 mphClear
4:35 AM28.4 °F23.0 °F80 %30.05 in10.0 miWest (260°)8.1 mphClear
4:55 AM28.4 °F23.0 °F80 %30.06 in10.0 miWSW (240°)8.1 mphClear
5:15 AM28.4 °F23.0 °F80 %30.06 in10.0 miWSW (250°)10.4 mphClear
5:35 AM28.4 °F23.0 °F80 %30.07 in10.0 miWSW (250°)10.4 mphClear
5:55 AM28.4 °F23.0 °F80 %30.07 in10.0 miWSW (250°)10.4 mphClear
6:15 AM28.4 °F23.0 °F80 %30.08 in10.0 miWSW (250°)11.5 mphClear
6:35 AM28.4 °F23.0 °F80 %30.09 in10.0 miWSW (250°)11.5 mphClear
6:55 AM28.4 °F23.0 °F80 %30.10 in10.0 miWest (260°)10.4 mphClear
7:15 AM28.4 °F23.0 °F80 %30.10 in10.0 miWSW (250°)9.2 mphClear
7:35 AM28.4 °F23.0 °F80 %30.10 in10.0 miSW (230°)10.4 mphClear
7:55 AM30.2 °F23.0 °F75 %30.11 in10.0 miSW (230°)9.2 mphClear
8:15 AM32.0 °F23.0 °F69 %30.12 in10.0 miWSW (240°)12.7 mphClear
8:35 AM32.0 °F23.0 °F69 %30.12 in10.0 miSW (230°)11.5 mphClear
8:55 AM32.0 °F23.0 °F69 %30.14 in10.0 miWSW (240°)10.4 mphClear
9:15 AM32.0 °F24.8 °F75 %30.14 in10.0 miWSW (240°)10.4 mphClear
9:35 AM32.0 °F23.0 °F69 %30.15 in10.0 miSW (230°)13.8 mphClear
9:55 AM33.8 °F24.8 °F70 %30.15 in10.0 miWSW (240°)12.7 mphClear
10:15 AM33.8 °F24.8 °F70 %30.15 in10.0 miSW (230°)15.0 mphClear
10:35 AM35.6 °F24.8 °F65 %30.15 in10.0 miWSW (250°)10.4 mphClear
10:55 AM37.4 °F24.8 °F60 %30.14 in10.0 miWSW (240°)10.4 mphClear
11:15 AM37.4 °F24.8 °F60 %30.13 in10.0 miSSW (210°)5.8 mphClear
11:35 AM39.2 °F24.8 °F56 %30.12 in10.0 miSSW (210°)9.2 mphClear
11:55 AM39.2 °F26.6 °F61 %30.10 in10.0 miSW (220°)10.4 mphClear
12:15 PM41.0 °F28.4 °F61 %30.10 in10.0 miSSW (210°)12.7 mphClear
12:35 PM41.0 °F30.2 °F65 %30.07 in10.0 miSSW (210°)15.0 mph18.4 mphClear
12:55 PM41.0 °F32.0 °F70 %30.07 in10.0 miSW (220°)12.7 mphClear
1:15 PM42.8 °F32.0 °F66 %30.06 in10.0 miSW (230°)13.8 mphClear
1:35 PM44.6 °F32.0 °F61 %30.06 in10.0 miWSW (250°)11.5 mphClear
1:55 PM46.4 °F32.0 °F57 %30.06 in10.0 miWSW (240°)13.8 mph17.3 mphClear
2:15 PM46.4 °F32.0 °F57 %30.07 in10.0 miSW (230°)12.7 mphClear
2:35 PM46.4 °F32.0 °F57 %30.06 in10.0 miSW (220°)10.4 mphClear
2:55 PM46.4 °F32.0 °F57 %30.06 in10.0 miWSW (240°)8.1 mphClear
3:15 PM48.2 °F32.0 °F54 %30.07 in10.0 miWest (280°)8.1 mph
3:35 PM48.2 °F28.4 °F46 %30.07 in10.0 miWNW (300°)18.4 mph24.2 mph
3:55 PM48.2 °F28.4 °F46 %30.07 in10.0 miNW (310°)15.0 mphClear
4:15 PM46.4 °F28.4 °F50 %30.08 in10.0 miWNW (300°)15.0 mph19.6 mphClear
4:55 PM46.4 °F28.4 °F50 %30.11 in10.0 miNW (310°)20.7 mph25.3 mphPartly Cloudy
5:15 PM44.6 °F30.2 °F57 %30.12 in10.0 miNNW (340°)18.4 mph24.2 mphClear
5:35 PM39.2 °F32.0 °F75 %30.15 in10.0 miNNW (330°)19.6 mph26.5 mphClear
5:55 PM37.4 °F30.2 °F75 %30.18 in10.0 miNW (310°)20.7 mph29.9 mphMostly Cloudy
6:15 PM35.6 °F30.2 °F81 %30.20 in10.0 miNW (320°)21.9 mph31.1 mphOvercast
6:35 PM35.6 °F28.4 °F75 %30.21 in10.0 miNW (310°)20.7 mph27.6 mphOvercast
6:55 PM35.6 °F24.8 °F65 %30.22 in10.0 miWNW (300°)21.9 mph33.4 mphOvercast
7:15 PM33.8 °F19.4 °F56 %30.23 in10.0 miWNW (300°)33.4 mph36.8 mphMostly Cloudy
7:35 PM32.0 °F21.2 °F64 %30.24 in10.0 miNW (310°)15.0 mph29.9 mphPartly Cloudy
7:55 PM32.0 °F17.6 °F55 %30.26 in10.0 miNW (310°)21.9 mph29.9 mphClear
8:15 PM32.0 °F17.6 °F55 %30.28 in10.0 miNW (310°)23.0 mph29.9 mphClear
8:35 PM32.0 °F17.6 °F55 %30.29 in10.0 miNW (310°)19.6 mph27.6 mphClear
9:15 PM30.2 °F15.8 °F55 %30.32 in10.0 miNW (310°)17.3 mph23.0 mphClear
9:35 PM28.4 °F15.8 °F59 %30.33 in10.0 miNW (310°)13.8 mphClear
9:55 PM28.4 °F15.8 °F59 %30.34 in10.0 miNW (310°)17.3 mph24.2 mphClear
10:15 PM28.4 °F14.0 °F55 %30.35 in10.0 miNW (310°)18.4 mph26.5 mphClear
10:35 PM26.6 °F10.4 °F51 %30.37 in10.0 miWNW (300°)23.0 mph29.9 mphClear
10:55 PM26.6 °F10.4 °F51 %30.38 in10.0 miNW (320°)15.0 mph24.2 mphClear
11:15 PM26.6 °F8.6 °F47 %30.39 in10.0 miNW (320°)18.4 mph26.5 mphClear
11:35 PM24.8 °F10.4 °F54 %30.39 in10.0 miNW (320°)17.3 mph23.0 mphClear
11:55 PM24.8 °F8.6 °F50 %30.40 in10.0 miNNW (330°)19.6 mph25.3 mphClear
Hourly data recorded from K4M9, located miles away from Corning, Arkansas







STORIES FROM OUR PARTNERS